Regional Weather Roundup
Issued by NWS

Home | Current Version | Previous Version | Graphics & Text | Print | Product List | Glossary On
Versions: 1 2 3 4 5 6 7 8 9 10 11 12 13 14 15 16 17 18 19 20 21 22 23 24 25 26 27
000
ASUS45 KPSR 230710
RWRAZ

ARIZONA HOURLY REGIONAL WEATHER ROUNDUP
NATIONAL WEATHER SERVICE PHOENIX AZ
1200 AM MST THU NOV 23 2017

NOTE: FAIR INDICATES FEW OR NO CLOUDS BELOW 12,000 FEET WITH NO
SIGNIFICANT WEATHER AND/OR OBSTRUCTIONS TO VISIBILITY.

AZZ001>003-036-230800-
NORTHWEST ARIZONA

CITY           SKY/WX    TMP DP  RH WIND       PRES   REMARKS
BULLHEAD CITY  CLEAR     73  37  27 N7        30.11S
KINGMAN        CLEAR     48  29  47 E5        30.27R
$$

AZZ004>008-015-016-018-230800-
NORTH CENTRAL ARIZONA

CITY           SKY/WX    TMP DP  RH WIND       PRES   REMARKS
GRAND CANYON   PTCLDY    27  19  72 CALM      30.44S
WILLIAMS       CLEAR     36  25  64 SE9       30.42F WCI  29
PRESCOTT       CLEAR     44  28  53 CALM      30.34S
FLAGSTAFF      PTCLDY    34  24  67 CALM      30.43F
PAYSON         CLEAR     55  28  35 CALM      30.34S
PAGE           CLEAR     47  29  49 W3        30.37R
$$

AZZ009>014-017-230800-
NORTHEAST ARIZONA

CITY           SKY/WX    TMP DP  RH WIND       PRES   REMARKS
WINSLOW        CLEAR     41  27  57 W9        30.36S
SAINT JOHNS    CLEAR     42  20  41 S8        30.37S
WINDOW ROCK    CLEAR     34  24  67 S3        30.42S
SHOW LOW       CLEAR     45  27  49 E7        30.40F
$$

AZZ540-542>544-546-548-230800-
GREATER PHOENIX AREA

CITY           SKY/WX    TMP DP  RH WIND       PRES   REMARKS
PHOENIX        CLEAR     67  35  30 CALM      30.08S
BUCKEYE        CLEAR     63  23  22 N9        30.09S
LUKE AFB       CLEAR     60  32  35 NE6       30.08S
DEER VALLEY    CLEAR     73  26  17 E8        30.10S
SCOTTSDALE     CLEAR     62  34  35 CALM      30.11F
MESA-GATEWAY   CLEAR     63  25  23 E3        30.11S
$$

AZZ539-553-230800-
SOUTHWEST MARICOPA COUNTY AND PINAL COUNTY

CITY           SKY/WX    TMP DP  RH WIND       PRES   REMARKS
CASA GRANDE    NOT AVBL
$$

AZZ503-504-507>509-230800-
SOUTHEAST ARIZONA

CITY           SKY/WX    TMP DP  RH WIND       PRES   REMARKS
TUCSON         CLEAR     60  20  21 SE9       30.17F
DAVIS-MONTHAN  CLEAR     65  20  18 SE14      30.15F
NOGALES        CLEAR     57  19  22 NE8       30.22S
SIERRA VISTA   CLEAR     51  17  26 CALM      30.28F
DOUGLAS        CLEAR     46  17  31 N5        30.25F
SAFFORD        CLEAR     50  17  27 W3        30.22F
$$

AZZ532-230800-
SOUTHWEST ARIZONA

CITY           SKY/WX    TMP DP  RH WIND       PRES   REMARKS
YUMA           CLEAR     70  32  24 NE5       30.04S
$$

CAZ041-043-047-048-061-525>527-560>570-230800-
SOUTHERN CALIFORNIA

CITY           SKY/WX    TMP DP  RH WIND       PRES   REMARKS
DOWNTOWN L.A.  CLEAR     74  40  29 NE3       30.03S
L.A. AIRPORT   CLEAR     74  45  35 NE6       30.03S
SAN DIEGO      CLEAR     70  42  36 CALM      30.03S
BURBANK        CLEAR     75  39  27 CALM      30.06S
ONTARIO        PTCLDY    65  41  41 N5        30.07S
RIVERSIDE      CLEAR     70  42  36 CALM      30.07S
PALM SPRINGS   CLEAR     69  38  32 N7        30.09S
EL CENTRO NAS  CLEAR     65  31  28 W9        30.06S
IMPERIAL       CLEAR     63  37  38 W3        30.04S
BLYTHE         CLEAR     64  30  27 W3        30.08S
NEEDLES        CLEAR     71  37  28 VRB5      30.12S
$$

NVZ020-UTZ003-230800-
SOUTHERN NEVADA-UTAH

CITY           SKY/WX    TMP DP  RH WIND       PRES   REMARKS
LAS VEGAS      PTCLDY    62  37  39 SW5       30.21S
SALT LAKE CITY MOCLDY    50  42  74 E10       30.35F
$$

NMZ009-TXZ055-230800-
NEW MEXICO-WEST TEXAS

CITY           SKY/WX    TMP DP  RH WIND       PRES   REMARKS
ALBUQUERQUE    CLOUDY    45  28  51 E3        30.34S
EL PASO        CLEAR     48  26  42 CALM      30.27S
$$


........................KEY........................
SKY/WX - SKY CONDITION/WEATHER
TMP    - TEMPERATURE IN FAHRENHEIT
DP     - DEW POINT IN FAHRENHEIT
RH     - RELATIVE HUMIDITY IN PERCENT
WIND   - DIRECTION AND SPEED IN MILES PER HOUR (MPH)
VRB    - VARIABLE WIND DIRECTION
PRES   - MEAN SEA LEVEL PRESSURE IN INCHES OF MERCURY
         F - FALLING PRESSURE   R - RISING PRESSURE
         S - STEADY PRESSURE
VSB    - VISIBILITY IN MILES
HX     - HEAT INDEX IN FAHRENHEIT
WCI    - WIND CHILL INDEX IN FAHRENHEIT
TC     - TEMPERATURE IN CELSIUS WHICH IS ALSO KNOWN AS
         TEMPERATURE IN CENTIGRADE
AFB    - AIR FORCE BASE
         LUKE AFB IS LUKE AIR FORCE BASE
         DAVIS-MONTHAN IS DAVIS-MONTHAN AIR FORCE BASE
NAS    - NAVAL AIR STATION
         EL CENTRO NAS IS EL CENTRO NAVAL AIR STATION
N/A    - NOT AVAILABLE





USA.gov is the U.S. government's official web portal to all federal, state and local government web resources and services.